Вернуться в каталог

STARLINK-33630

АктивенСвязьVLEO
NORAD 63477·PAYLOAD·🇺🇸 United States

Запущен Apr 6, 2025 с Cape Canaveral Space Force Station

Loading…

Ближайшие Пролёты (ближайшие 24 часа)

TLE

СвежийSource: CelesTrak SupGP

Эпоха: Sep 14, 2026, 21:06 UTC

1 63477C 25070T   26257.87965278  .00022793  00000+0  82583-3 0  2573
2 63477  43.0025 267.7743 0001559 266.1727  26.3222 15.27556047    10

Отслеживайте STARLINK-33630 в реальном времени с AllMySat

Download on the App Store